• En España
  • Lista de países
  • Para 7 días
  • Temperatura del agua
  • Mapa Satelital
  • El tiempo en el mapa
  • Informadores
  • user-avatar
    Iniciar sesión

    Tiempo cada hora Elashka

    Hoy, 21 Abril, Sábado

    Tiempo Temperatura Precipitaciones Viento Presión Humedad
    00:00 +7°C° 0 mm 2 mps 735 mmHg 85%
    01:00 +7°C° 0 mm 3 mps 735 mmHg 86%
    02:00 +6°C° 0 mm 2 mps 735 mmHg 86%
    03:00 +5°C° 0 mm 3 mps 734 mmHg 85%
    04:00 +5°C° 0 mm 3 mps 733 mmHg 84%
    05:00 +5°C° 0 mm 4 mps 733 mmHg 83%
    06:00 +7°C° 0 mm 5 mps 732 mmHg 79%
    07:00 +8°C° 0 mm 6 mps 732 mmHg 74%
    08:00 +10°C° 0 mm 7 mps 731 mmHg 67%
    09:00 +11°C° 0 mm 8 mps 730 mmHg 63%
    10:00 +13°C° 0 mm 8 mps 729 mmHg 58%
    11:00 +16°C° 0 mm 9 mps 728 mmHg 54%
    12:00 +16°C° 0 mm 9 mps 727 mmHg 52%
    13:00 +17°C° 0 mm 10 mps 726 mmHg 50%
    14:00 +18°C° 0 mm 10 mps 725 mmHg 48%
    15:00 +17°C° 0,1 mm 10 mps 724 mmHg 50%
    16:00 +17°C° 0,1 mm 9 mps 723 mmHg 53%
    17:00 +17°C° 0,1 mm 9 mps 722 mmHg 56%
    18:00 +16°C° 0,8 mm 9 mps 722 mmHg 59%
    19:00 +15°C° 0,8 mm 8 mps 721 mmHg 63%
    20:00 +12°C° 0,8 mm 8 mps 721 mmHg 66%
    21:00 +11°C° 0 mm 8 mps 721 mmHg 67%
    22:00 +9°C° 0 mm 8 mps 722 mmHg 67%
    23:00 +6°C° 0 mm 8 mps 722 mmHg 67%

    Mañana, 22 Abril, Domingo

    Tiempo Temperatura Precipitaciones Viento Presión Humedad
    00:00 +5°C° 0 mm 8 mps 722 mmHg 68%
    01:00 +5°C° 0 mm 9 mps 723 mmHg 69%
    02:00 +3°C° 0 mm 9 mps 723 mmHg 70%
    03:00 +3°C° 0 mm 9 mps 723 mmHg 70%
    04:00 +3°C° 0 mm 9 mps 723 mmHg 70%
    05:00 +2°C° 0 mm 9 mps 723 mmHg 69%
    06:00 +3°C° 0 mm 9 mps 724 mmHg 67%
    07:00 +3°C° 0 mm 9 mps 725 mmHg 64%
    08:00 +5°C° 0 mm 10 mps 725 mmHg 62%
    09:00 +5°C° 0,1 mm 9 mps 725 mmHg 61%
    10:00 +5°C° 0,1 mm 9 mps 726 mmHg 60%
    11:00 +5°C° 0,1 mm 8 mps 726 mmHg 59%
    12:00 +5°C° 0 mm 8 mps 727 mmHg 57%
    13:00 +5°C° 0 mm 8 mps 727 mmHg 56%
    14:00 +6°C° 0 mm 8 mps 727 mmHg 55%
    15:00 +5°C° 0 mm 7 mps 728 mmHg 56%
    16:00 +5°C° 0 mm 7 mps 728 mmHg 57%
    17:00 +5°C° 0 mm 6 mps 728 mmHg 58%
    18:00 +5°C° 0 mm 5 mps 729 mmHg 60%
    19:00 +3°C° 0 mm 5 mps 729 mmHg 63%
    20:00 +3°C° 0 mm 4 mps 730 mmHg 65%
    21:00 +3°C° 0 mm 4 mps 730 mmHg 65%
    22:00 +1°C° 0 mm 4 mps 731 mmHg 66%
    23:00 +1°C° 0 mm 4 mps 731 mmHg 66%

    Pasado mañana, 23 Abril, Lunes

    Tiempo Temperatura Precipitaciones Viento Presión Humedad
    00:00 0°C° 0 mm 4 mps 731 mmHg 67%
    01:00 0°C° 0 mm 4 mps 732 mmHg 68%
    02:00 -1°C° 0 mm 4 mps 732 mmHg 68%
    03:00 -2°C° 0 mm 4 mps 732 mmHg 69%
    04:00 -2°C° 0 mm 4 mps 733 mmHg 70%
    05:00 -3°C° 0 mm 4 mps 733 mmHg 71%
    06:00 -2°C° 0 mm 5 mps 734 mmHg 64%
    07:00 -1°C° 0 mm 5 mps 734 mmHg 57%
    08:00 -1°C° 0 mm 6 mps 735 mmHg 49%
    09:00 +1°C° 0 mm 6 mps 735 mmHg 47%
    10:00 +2°C° 0 mm 6 mps 735 mmHg 45%
    11:00 +3°C° 0 mm 6 mps 735 mmHg 43%
    12:00 +3°C° 0 mm 5 mps 735 mmHg 42%
    13:00 +5°C° 0 mm 5 mps 735 mmHg 41%
    14:00 +5°C° 0 mm 5 mps 736 mmHg 41%
    15:00 +5°C° 0 mm 5 mps 736 mmHg 41%
    16:00 +5°C° 0 mm 5 mps 736 mmHg 42%
    17:00 +5°C° 0 mm 5 mps 736 mmHg 43%
    18:00 +4°C° 0 mm 4 mps 736 mmHg 47%
    19:00 +3°C° 0 mm 3 mps 736 mmHg 52%
    20:00 +3°C° 0 mm 2 mps 737 mmHg 57%
    21:00 +2°C° 0 mm 2 mps 737 mmHg 59%
    22:00 +2°C° 0 mm 2 mps 737 mmHg 60%
    23:00 +2°C° 0 mm 1 mps 737 mmHg 62%

    24 Abril, Martes

    Tiempo Temperatura Precipitaciones Viento Presión Humedad
    00:00 +2°C° 0 mm 1 mps 738 mmHg 63%
    01:00 +1°C° 0 mm 1 mps 738 mmHg 64%
    02:00 +1°C° 0 mm 1 mps 738 mmHg 65%
    03:00 +1°C° 0 mm 1 mps 738 mmHg 64%
    04:00 +1°C° 0 mm 1 mps 738 mmHg 64%
    05:00 +1°C° 0 mm 1 mps 738 mmHg 64%
    06:00 +3°C° 0 mm 1 mps 738 mmHg 58%
    07:00 +4°C° 0 mm 2 mps 738 mmHg 52%
    08:00 +5°C° 0 mm 2 mps 738 mmHg 47%
    09:00 +6°C° 0 mm 2 mps 738 mmHg 43%
    10:00 +7°C° 0 mm 2 mps 738 mmHg 40%
    11:00 +8°C° 0 mm 2 mps 738 mmHg 37%
    12:00 +9°C° 0 mm 3 mps 737 mmHg 36%
    13:00 +10°C° 0 mm 3 mps 737 mmHg 36%
    14:00 +10°C° 0 mm 3 mps 737 mmHg 35%
    15:00 +10°C° 0 mm 3 mps 737 mmHg 38%
    16:00 +10°C° 0 mm 3 mps 736 mmHg 41%
    17:00 +10°C° 0 mm 2 mps 736 mmHg 44%
    18:00 +9°C° 0 mm 2 mps 736 mmHg 47%
    19:00 +8°C° 0 mm 2 mps 736 mmHg 51%
    20:00 +7°C° 0 mm 2 mps 736 mmHg 54%
    21:00 +7°C° 0 mm 2 mps 736 mmHg 58%
    22:00 +6°C° 0 mm 2 mps 735 mmHg 62%
    23:00 +6°C° 0 mm 2 mps 735 mmHg 67%

    25 Abril, Miércoles

    Tiempo Temperatura Precipitaciones Viento Presión Humedad
    00:00 +6°C° 0,1 mm 2 mps 735 mmHg 71%
    01:00 +6°C° 0,1 mm 2 mps 735 mmHg 75%
    02:00 +5°C° 0,1 mm 2 mps 735 mmHg 80%
    03:00 +4°C° 0,1 mm 3 mps 734 mmHg 80%
    04:00 +5°C° 0,1 mm 3 mps 734 mmHg 80%
    05:00 +5°C° 0,1 mm 4 mps 734 mmHg 80%
    06:00 +5°C° 0,1 mm 4 mps 734 mmHg 79%
    07:00 +5°C° 0,1 mm 5 mps 734 mmHg 79%
    08:00 +6°C° 0,1 mm 5 mps 734 mmHg 78%
    09:00 +7°C° 0,1 mm 6 mps 733 mmHg 77%
    10:00 +8°C° 0,1 mm 6 mps 733 mmHg 75%
    11:00 +9°C° 0,1 mm 6 mps 733 mmHg 74%
    12:00 +9°C° 0,7 mm 6 mps 732 mmHg 77%
    13:00 +9°C° 0,7 mm 6 mps 732 mmHg 80%
    14:00 +8°C° 0,7 mm 6 mps 731 mmHg 83%
    15:00 +9°C° 1,1 mm 6 mps 731 mmHg 83%
    16:00 +9°C° 1,1 mm 6 mps 730 mmHg 83%
    17:00 +9°C° 1,1 mm 6 mps 730 mmHg 82%
    18:00 +8°C° 0,1 mm 5 mps 730 mmHg 82%
    19:00 +7°C° 0,1 mm 5 mps 731 mmHg 82%
    20:00 +6°C° 0,1 mm 4 mps 731 mmHg 82%
    21:00 +6°C° 0 mm 4 mps 731 mmHg 82%
    22:00 +5°C° 0 mm 4 mps 732 mmHg 82%
    23:00 +5°C° 0 mm 5 mps 732 mmHg 82%

    26 Abril, Jueves

    Tiempo Temperatura Precipitaciones Viento Presión Humedad
    00:00 +4°C° 0 mm 4 mps 732 mmHg 83%
    01:00 +4°C° 0 mm 4 mps 733 mmHg 85%
    02:00 +3°C° 0 mm 4 mps 733 mmHg 86%
    03:00 +3°C° 0 mm 4 mps 733 mmHg 87%
    04:00 +3°C° 0 mm 4 mps 733 mmHg 88%
    05:00 +3°C° 0 mm 4 mps 734 mmHg 89%
    06:00 +5°C° 0 mm 4 mps 734 mmHg 82%
    07:00 +6°C° 0 mm 5 mps 734 mmHg 75%
    08:00 +8°C° 0 mm 5 mps 734 mmHg 69%
    09:00 +9°C° 0 mm 5 mps 734 mmHg 63%
    10:00 +10°C° 0 mm 5 mps 734 mmHg 57%
    11:00 +13°C° 0 mm 5 mps 734 mmHg 51%
    12:00 +13°C° 0 mm 4 mps 734 mmHg 53%
    13:00 +13°C° 0 mm 3 mps 734 mmHg 55%
    14:00 +13°C° 0 mm 2 mps 733 mmHg 56%
    15:00 +12°C° 0,5 mm 3 mps 733 mmHg 63%
    16:00 +12°C° 0,5 mm 3 mps 732 mmHg 69%
    17:00 +11°C° 0,5 mm 3 mps 732 mmHg 76%
    18:00 +11°C° 0,6 mm 3 mps 731 mmHg 81%
    19:00 +11°C° 0,6 mm 3 mps 731 mmHg 86%
    20:00 +11°C° 0,6 mm 3 mps 731 mmHg 90%
    21:00 +11°C° 0,1 mm 3 mps 731 mmHg 91%
    22:00 +11°C° 0,1 mm 3 mps 731 mmHg 93%
    23:00 +11°C° 0,1 mm 3 mps 731 mmHg 94%
    Mostrar más